Regional Weather Roundup
Issued by NWS

Home | Current Version | Previous Version | Text Only | Print | Product List | Glossary On
Versions: 1 2 3 4 5 6 7 8 9 10 11 12 13 14 15 16 17 18 19 20 21 22 23 24 25 26 27 28 29 30 31 32 33 34 35 36 37 38 39 40 41 42 43 44 45 46 47 48 49 50
000
ASUS43 KLSX 220907
RWRMO

WEATHER SUMMARY FOR MISSOURI
NATIONAL WEATHER SERVICE SPRINGFIELD MO
400 AM CDT TUE JUL 22 2014

NOTE: "FAIR" INDICATES FEW OR NO CLOUDS BELOW 12,000 FEET WITH NO
       SIGNIFICANT WEATHER AND/OR OBSTRUCTIONS TO VISIBILITY.
       CURRENT SKY AND/OR WEATHER CONDITIONS ARE NOT AVAILABLE FOR
       CHILLICOTHE AND FARMINGTON.

MOZ001>031-035>038-043-044-053-054-221000-
...NORTHERN AND WESTERN MISSOURI...

CITY           SKY/WX    TMP DP  RH WIND       PRES   REMARKS
KANSAS CTY INT PTCLDY    78  73  84 SW12      29.99R
KANSAS C DTWN  CLEAR     80  74  81 S12       29.98R
LEE`S SUMMIT   CLEAR     77  73  87 S10G17    30.01R
ST JOSEPH      PTCLDY    78  74  87 S9        29.96R
CHILLICOTHE      N/A     77  72  84 S3        30.00R
KIRKSVILLE     PTCLDY    73  68  84 S7        30.02S

$$
MOZ066>068-077>081-088>096-101>105-221000-
...SOUTHWEST MISSOURI...

CITY           SKY/WX    TMP DP  RH WIND       PRES   REMARKS
SPRINGFIELD    PTCLDY    71  66  84 S8        30.08R
JOPLIN         PTCLDY    73  69  87 S8        30.05F

$$
MOZ032>034-039>042-045>050-055>058-069>072-221000-
...CENTRAL MISSOURI...

CITY           SKY/WX    TMP DP  RH WIND       PRES   REMARKS
COLUMBIA       CLEAR     71  67  87 S8        30.05F
JEFFERSON CITY CLEAR     72  66  81 E5        30.05F
ROLLA          CLEAR     68  64  87 S10       30.07F
SEDALIA        CLEAR     73  67  81 S8        30.05R
WHITEMAN AFB   PTCLDY    71  60  67 S6        30.02S
OSAGE BEACH    CLEAR     70  64  83 SE6       30.06S

$$
MOZ051-052-059>065-221000-
...EAST CENTRAL MISSOURI...

CITY           SKY/WX    TMP DP  RH WIND       PRES   REMARKS
ST LOUIS INTL  CLEAR     75  65  70 SW6       30.08S
SPIRIT OF STL  CLEAR     66  64  93 CALM      30.06S FOG
ST CHARLES     CLEAR     67  65  93 E3        30.06S

$$
MOZ072>076-082>087-097>100-106>115-221000-
...SOUTH CENTRAL AND SOUTHEAST MISSOURI...

CITY           SKY/WX    TMP DP  RH WIND       PRES   REMARKS
CAPE GIRARDEAU CLEAR     64  63  96 CALM      30.08S FOG
FARMINGTON       N/A     63  61  94 CALM      30.13R VSB 3/4
POPLAR BLUFF   CLEAR     63  61  93 CALM      30.07S FOG
WEST PLAINS    CLEAR     66  62  87 W3        30.12R

$$



USA.gov is the U.S. government's official web portal to all federal, state and local government web resources and services.